Location: Unspecified
(0.0000°N, 0.0000°E)
Time: 09:22:20
(UTC+00:00)

A-11 Canister half - Pass Details

Date: 20 June 2024
Orbit: 1515 x 1684 km, 47.2° (Epoch: 23 July)

Event Time Altitude Azimuth Distance (km) Brightness Sun altitude
Rises 02:35:33 0° 328° (NNW) 4,710 11.6 -45.9°
Enters shadow 02:38:31 - 332° (NNW) 3,763 11.0 -45.3°
Exits shadow 02:49:43 52° 93° (E) 1,828 9.4 -43.0°
Drops below altitude 10° 02:56:53 10° 128° (SE) 3,673 11.1 -41.5°
Sets 02:59:58 0° 132° (SE) 4,661 11.7 -40.8°
